AirNav   Everest Fuels
 
 587 users online  

3PS3 Keller Heliport
Bushkill Township, Pennsylvania, USA

GOING TO BUSHKILL TOWNSHIP?


FAA INFORMATION EFFECTIVE 18 JUNE 2020

Location

FAA Identifier: 3PS3
Lat/Long: 40-48-23.0000N 075-19-18.0000W
40-48.383333N 075-19.300000W
40.8063889,-75.3216667
(estimated)
Elevation: 685 ft. / 209 m (estimated)
From city: 12 miles NE of BUSHKILL TOWNSHIP, PA
Time zone: UTC -4 (UTC -5 during Standard Time)
Zip code: 18091

Heliport Operations

Heliport use: Private use. Permission required prior to landing
Activation date: 05/2015
Control tower: no
ARTCC: NEW YORK CENTER
FSS: ALTOONA FLIGHT SERVICE STATION
Attendance: UNATT
Wind indicator: yes
Segmented circle: no

Heliport Communications

WX ASOS at ABE (11 nm SW): 126.975 (610-266-3579)
WX AWOS-3 at XLL (16 nm SW): 127.875 (610-231-3111)
WX AWOS-3PT at 22N (20 nm W): 119.350 (570-386-3423)

Nearby radio navigation aids

VOR radial/distance  VOR name  Freq  Var
FJCr062/7.7ALLENTOWN VORTAC117.5010W
ETXr060/21.3EAST TEXAS VOR/DME110.2009W
BWZr282/22.7BROADWAY VOR/DME114.2011W
STWr252/23.5STILLWATER VOR/DME109.6011W
SBJr307/29.6SOLBERG VOR/DME112.9010W
LVZr159/32.6WILKES-BARRE VORTAC111.6010W
PTWr026/36.7POTTSTOWN VORTAC116.5009W
ARDr340/38.2YARDLEY VOR/DME108.2010W
SAXr257/38.8SPARTA VORTAC115.7011W

Heliport Services

Runway Information

Helipad H1

Dimensions: 40 x 40 ft. / 12 x 12 m
Surface: concrete
Traffic pattern: rightleft
Obstructions: 45 ft. pline, 150 ft. from runway
S OF HELI.

Heliport Ownership and Management from official FAA records

Ownership: Privately-owned
Owner: RICHARD VILLONE
5010 RIVER ROAD
MT. BETHEL, PA 18343
Phone 570-897-8200
Manager: RICHARD VILLONE
5010 RIVER ROAD
MT. BETHEL, PA 18343
Phone 570-897-8200

Heliport Operational Statistics

Aircraft based on the field: 1
Single engine airplanes: 1
    

Additional Remarks

WRITTEN PPR REQ FOR HELI USE.
AVOID OPS OVR BARON RD W/SW OF HELI.
AVOID SINGLE PLINE MKD WITH BALLS 150 FT S OF HELI.
INGRESS/EGRESS SE/NE & NW/SE PREF DUE TO NOISE ABATEMENT.
FOR CD CTC ALLENTOWN APCH AT 800-728-6322

Instrument Procedures

There are no published instrument procedures at 3PS3.

Some nearby airports with instrument procedures:

N43 - Braden Airpark (5 nm SE)
KABE - Lehigh Valley International Airport (11 nm SW)
N53 - Stroudsburg-Pocono Airport (16 nm NE)
KXLL - Allentown Queen City Municipal Airport (16 nm SW)
1N7 - Blairstown Airport (18 nm NE)
N85 - Alexandria Airport (19 nm SE)
22N - Jake Arner Memorial Airport (20 nm W)
 
Loc | Ops | Rwys | IFR | FBO | Links
Com | Nav | Svcs | Stats | Notes
Aerial photo
No photo
 
Airport distance calculator
Flying to Keller Heliport? Find the distance to fly.

From to 3PS3

Sunrise and sunset
Times for 11-Jul-2020
 Local
(UTC-4)
 Zulu
(UTC)
Morning civil twilight05:0909:09
Sunrise05:4109:41
Sunset20:3200:32
Evening civil twilight21:0501:05

Current date and time
Zulu (UTC)  11-Jul-2020 04:38:24
Local (UTC-4)  11-Jul-2020 00:38:24
 
METAR
KABE 
11nm SW 
110404Z AUTO 8SM -RA SCT008 OVC021 22/21 A2965 RMK AO2 P0000 T02220211
KXLL 
16nm SW 
110415Z AUTO 23009KT 10SM SCT005 SCT011 BKN041 22/22 A2968 RMK AO2
KMPO 
20nm N 
110424Z AUTO 28005KT 4SM -RA BR BKN010 OVC014 20/19 A2968 RMK AO2 P0002 T02000194 $
K22N 
20nm W 
110424Z AUTO 00000KT 5SM RA SCT034 OVC049 22/22 A2967 RMK AO2
TAF
KABE 
11nm SW 
110359Z 1104/1124 24010KT P6SM FEW010 OVC020 FM110700 VRB03KT P6SM BKN035 FM111000 VRB03KT 4SM BR SCT080 FM111300 21006KT P6SM BKN080
NOTAMs
Click for the latest NOTAMs
NOTAMs are issued by the DoD/FAA and will open in a separate window not controlled by AirNav.

 

 
 

Would you like to see your business listed on this page?

 If your business provides an interesting product or service to pilots, flight crews, aircraft, or users of the Keller Heliport, you should consider listing it here.  To start the listing process, click on the button below
 
Add a business
 

Other Pages about Keller Heliport

Update a link
 
Copyright © AirNav, LLC. All rights reserved. Privacy Policy  Contact